GW0147 Weather Reports


time (UTC)temp
C
wind
direction
speed
KPH
gust
KPH
rain 1hr
cm
rain 24hr
cm
rain mn
cm
humidity
%
barometer
mb
20260505124526 20 304 8.0 29.0 0.00 0.18 0.13 61 1003.0
20260505123025 20 239 4.8 27.4 0.00 0.18 0.13 61 1002.8
20260505121523 19 238 8.0 27.4 0.00 0.18 0.13 62 1002.7
20260505120034 19 162 11.3 35.4 0.00 0.18 0.13 63 1002.8
20260505114519 18 340 4.8 27.4 0.00 0.18 0.13 63 1002.6
20260505113019 18 186 4.8 35.4 0.00 0.18 0.13 63 1002.6
20260505111528 18 218 8.0 25.7 0.00 0.18 0.13 63 1002.4
20260505101513 17 219 6.4 38.6 0.00 0.18 0.13 68 1001.6
20260505100015 18 129 6.4 25.7 0.00 0.18 0.13 68 1001.4
20260505094513 17 225 8.0 32.2 0.00 0.18 0.13 68 1001.5
20260505093009 17 164 8.0 22.5 0.00 0.18 0.13 70 1001.4
20260505091511 17 163 6.4 19.3 0.00 0.18 0.13 71 1001.4
20260505090007 17 142 6.4 22.5 0.00 0.18 0.13 71 1001.3
20260505084505 17 127 9.7 24.1 0.03 0.18 0.13 73 1001.4
20260505083010 16 192 8.0 22.5 0.03 0.18 0.13 74 1001.5
20260505081505 17 130 8.0 16.1 0.03 0.18 0.13 72 1001.5
20260505080009 16 185 4.8 32.2 0.03 0.18 0.13 74 1001.5
20260505074501 15 183 4.8 17.7 0.00 0.15 0.10 80 1001.8
20260505073000 14 140 3.2 9.7 0.00 0.15 0.10 85 1001.8
20260505071614 13 182 1.6 6.4 0.00 0.15 0.10 88 1002.1
20260505070056 13 146 1.6 4.8 0.00 0.15 0.10 87 1002.3
20260505064555 13 147 0.0 4.8 0.00 0.15 0.10 86 1002.7
20260505063055 13 205 4.8 12.9 0.00 0.15 0.10 86 1002.6
20260505061555 13 146 3.2 11.3 0.08 0.15 0.10 85 1002.9
20260505060059 13 165 3.2 8.0 0.10 0.15 0.10 85 1003.6
20260505054551 13 158 3.2 14.5 0.10 0.15 0.10 84 1003.9
20260505053044 14 278 9.7 19.3 0.10 0.15 0.10 82 1004.2
20260505051541 15 254 4.8 22.5 0.03 0.08 0.03 78 1003.9
20260505041542 16 215 0.0 14.5 0.03 0.05 0.00 72 1003.4
20260505040027 16 220 4.8 32.2 0.03 0.05 0.00 74 1003.2
20260505034527 17 138 4.8 12.9 0.00 0.03 0.03 72 1003.2
20260505033028 16 130 8.0 16.1 0.03 0.03 0.03 72 1002.9
20260505031525 16 129 6.4 11.3 0.03 0.03 0.03 74 1003.1
20260505030025 16 140 4.8 14.5 0.03 0.03 0.03 75 1003.2
20260505024522 17 170 8.0 19.3 0.03 0.03 0.03 66 1003.5
20260505023021 18 179 3.2 11.3 0.00 0.00 0.00 59 1003.6
20260505021520 18 159 6.4 14.5 0.00 0.00 0.00 56 1003.6
20260505020030 19 200 4.8 17.7 0.00 0.00 0.00 53 1003.8
20260505014531 18 187 9.7 33.8 0.00 0.00 0.00 53 1003.6
20260505013026 16 198 1.6 9.7 0.00 0.00 0.00 52 1003.3
20260505011524 16 141 0.0 6.4 0.00 0.00 0.00 52 1003.1
20260505010017 16 142 1.6 8.0 0.00 0.00 0.00 51 1003.4
20260505004517 17 185 1.6 4.8 0.00 0.00 0.00 50 1003.4
20260505003023 17 164 1.6 9.7 0.00 0.00 0.00 47 1003.3
20260505001515 17 190 1.6 11.3 0.00 0.00 0.00 46 1003.3
20260505000013 18 263 3.2 11.3 0.00 0.00 0.00 45 1003.6
20260504234512 18 241 1.6 11.3 0.00 0.00 0.00 44 1003.6
20260504233016 19 248 4.8 16.1 0.00 0.00 0.00 42 1003.7
20260504231512 20 234 4.8 14.5 0.00 0.00 0.00 41 1003.6
20260504230012 20 232 6.4 20.9 0.00 0.00 0.00 42 1003.5
20260504224516 20 290 4.8 16.1 0.00 0.00 0.00 44 1003.8
20260504223014 21 240 3.2 19.3 0.00 0.00 0.00 42 1003.7
20260504221509 21 239 8.0 24.1 0.00 0.00 0.00 42 1003.6
20260504220008 21 253 8.0 20.9 0.00 0.00 0.00 42 1003.7
20260504214506 21 254 6.4 27.4 0.00 0.00 0.00 42 1003.9
20260504213013 21 214 8.0 22.5 0.00 0.00 0.00 41 1003.8
20260504211511 21 250 6.4 16.1 0.00 0.00 0.00 42 1003.8
20260504210004 20 271 8.0 17.7 0.00 0.00 0.00 42 1003.9
20260504204503 21 263 8.0 19.3 0.00 0.00 0.00 42 1003.9
20260504203108 21 252 9.7 17.7 0.00 0.00 0.00 43 1004.3
20260504201612 20 287 9.7 20.9 0.00 0.00 0.00 47 1004.5
20260504200056 20 256 4.8 16.1 0.00 0.00 0.00 46 1004.5
20260504194556 21 310 6.4 16.1 0.00 0.00 0.00 44 1004.7
20260504193100 21 309 3.2 12.9 0.00 0.00 0.00 45 1004.9
20260504191607 21 313 4.8 16.1 0.00 0.00 0.00 47 1005.2
20260504184550 21 270 4.8 16.1 0.00 0.00 0.00 47 1005.8
20260504183043 20 294 4.8 14.5 0.00 0.00 0.00 48 1005.9
20260504181541 20 298 4.8 17.7 0.00 0.00 0.00 48 1006.1
20260504180038 19 240 4.8 17.7 0.00 0.00 0.00 50 1006.4
20260504174537 18 263 8.0 17.7 0.00 0.00 0.00 50 1006.7
20260504173034 18 270 4.8 17.7 0.00 0.00 0.00 51 1006.8
20260504171536 17 252 8.0 17.7 0.00 0.00 0.00 52 1006.9